Location: Madrid
(40.4000°N, 3.6830°W)
Time: 20:46:01
(UTC+02:00)

ISS - Pass Details

Date: 27 March 2017
Orbit: 401 x 409 km, 51.6° (Epoch: 01 May)

Event Time Altitude Azimuth Distance (km) Brightness Sun altitude
Rises 21:31:55 0° 212° (SSW) 2,302 0.3 -11.7°
Reaches altitude 10° 21:34:05 10° 203° (SSW) 1,449 -0.9 -12.1°
Maximum altitude 21:37:04 34° 136° (SE) 679 -3.2 -12.6°
Enters shadow 21:38:31 23° 87° (E) 924 -2.6 -12.9°
